Patuxent River, MD

6:59 PM EDT on May 29, 2017 (GMT -0400)
Patuxent River Naval Air Station

Weather History for KNHK - June, 2013

Change the Weather History Date:

Thursday, June 20, 2013

  Actual Average Record
Temperature  
Mean Temperature 68 °F -  
Max Temperature 79 °F 82 °F 95 °F (1988)
Min Temperature 59 °F 66 °F 55 °F (2004)
Cooling Degree Days 4    
Growing Degree Days 18 (Base 50)    
Moisture  
Dew Point 53 °F    
Average Humidity 54    
Maximum Humidity 88    
Minimum Humidity 36    
Precipitation  
Precipitation 0.00 in - - ()
Sea Level Pressure  
Sea Level Pressure 30.25 in    
Wind  
Wind Speed 6 mph (SSE)    
Max Wind Speed 10 mph    
Max Gust Speed -    
Visibility 10 miles    
Events      
Averages and records for this station are not official NWS values.
T = Trace of Precipitation, MM = Missing Value Source: NWS Daily Summary

Daily Weather History Graph

Daily Weather History Graph

Search for Another Location

Airport or City:

Trip Planner

Search our weather history database for the weather conditions in past years. The results will help you decide how hot, cold, wet, or windy it might be!

Date:

Astronomy

Jun. 20, 2013 Rise Set
Actual Time 5:42 AM EDT 8:32 PM EDT
Civil Twilight 5:10 AM EDT 9:04 PM EDT
Nautical Twilight 4:30 AM EDT 9:43 PM EDT
Astronomical Twilight 3:45 AM EDT 10:29 PM EDT
Moon 5:33 PM EDT (6/20) 3:05 AM EDT (6/20)
Length of Visible Light 15h 53m
Length of Day
14h 50m
Waxing Gibbous, 89% of the Moon is Illuminated
Jun 20
Waxing Gibbous
Jun 23
Full
Jun 30
Last Quarter
Jul 8
New
Jul 15
First Quarter

Hourly Weather History & Observations

Time (EDT) Temp. Dew Point Humidity Pressure Visibility Wind Dir Wind Speed Gust Speed Precip Events Conditions
12:52 AM - - N/A% 30.19 in - North - - N/A   Unknown
1:52 AM - - N/A% 30.19 in - North - - N/A   Unknown
2:52 AM - - N/A% 30.20 in - North - - N/A   Unknown
3:52 AM - - N/A% 30.20 in - North - - N/A   Unknown
4:52 AM - - N/A% 30.21 in - North - - N/A   Unknown
5:03 AM 62.6 °F 55.4 °F 77% 30.20 in 10.0 mi SW 3.5 mph - N/A   Partly Cloudy
5:52 AM 59.0 °F 55.4 °F 88% 30.22 in 10.0 mi South 3.5 mph - N/A   Partly Cloudy
6:52 AM 60.8 °F 57.2 °F 88% 30.23 in 10.0 mi SSW 3.5 mph - N/A   Partly Cloudy
7:52 AM 69.8 °F 57.2 °F 64% 30.25 in 10.0 mi SE 5.8 mph - N/A   Partly Cloudy
8:52 AM 71.6 °F 57.2 °F 60% 30.26 in 10.0 mi SE 6.9 mph - N/A   Clear
9:52 AM 75.2 °F 57.2 °F 53% 30.27 in 10.0 mi SSE 9.2 mph - N/A   Partly Cloudy
10:52 AM 75.2 °F 57.2 °F 53% 30.28 in 10.0 mi SE 10.4 mph - N/A   Scattered Clouds
11:52 AM 77.0 °F 57.2 °F 50% 30.29 in 10.0 mi SE 10.4 mph - N/A   Partly Cloudy
12:52 PM 77.0 °F 57.2 °F 50% 30.29 in 10.0 mi SE 9.2 mph - N/A   Partly Cloudy
1:52 PM 78.8 °F 59.0 °F 51% 30.27 in 10.0 mi SE 9.2 mph - N/A   Partly Cloudy
2:52 PM 78.8 °F 53.8 °F 42% 30.27 in 10.0 mi SSE 9.2 mph - N/A   Partly Cloudy
3:52 PM 78.8 °F 50.0 °F 36% 30.26 in 10.0 mi SSE 5.8 mph - N/A   Scattered Clouds
4:52 PM 78.8 °F 50.0 °F 36% 30.26 in 10.0 mi South 6.9 mph - N/A   Partly Cloudy
5:52 PM 77.0 °F 50.0 °F 39% 30.25 in 10.0 mi SSE 8.1 mph - N/A   Scattered Clouds
6:52 PM 75.2 °F 50.0 °F 41% 30.26 in 10.0 mi SSE 9.2 mph - N/A   Partly Cloudy
7:52 PM 71.6 °F 50.0 °F 46% 30.27 in 10.0 mi South 5.8 mph - N/A   Scattered Clouds
8:52 PM 66.9 °F 51.8 °F 58% 30.27 in 10.0 mi South 4.6 mph - N/A   Scattered Clouds
9:52 PM 68.0 °F 48.2 °F 49% 30.27 in 10.0 mi SE 6.9 mph - N/A   Mostly Cloudy
10:52 PM 68.0 °F 46.4 °F 46% 30.27 in 10.0 mi SE 8.1 mph - N/A   Mostly Cloudy
11:52 PM 68.0 °F 46.9 °F 47% 30.27 in 10.0 mi SE 8.1 mph - N/A   Clear